Tracking 18945 objects as of 20-Jan-2018
HD Live streaming from Space Station
objects crossing your sky now

FENGYUN 1C DEB

Track FENGYUN 1C DEB now!
10-day predictions


NORAD ID: 31383
Int'l Code: 1999-025BSP
Perigee: 815.7 km
Apogee: 988.9 km
Inclination: 99.3 °
Period: 102.9 minutes
Semi major axis: 7273 km
RCS: 0.0142 m2 (small)
Launch date: May 10, 1999
Source: People's Republic of China (PRC)
Launch site: Taiyaun Space Center, China (TSC)

Note: This is SATELLITE DEBRIS
aabbcc
Your satellite tracking list
Your tracking list is empty




NASA's NSSDC Master Catalog

Two Line Element Set (TLE):
1 31383U 99025BSP 18020.24339214  .00000185  00000-0  14931-3 0  9997
2 31383  99.2759  22.3353 0119040 328.9452  94.8032 13.99601225549818
Source of the keplerian elements: AFSPC